sat.trackr.live / text

‹ back to catalog

STARLINK-32951

NORAD 63562 · 2025-075Q

PAYLOAD ACTIVE UNKNOWN

§ Identity

Operator
Country
US
Launch date
2025-04-13
Launch site
AFETR
Launch vehicle
Mass (kg)
RCS (m²)

Purposes: comms

External: N2YO · Heavens-Above · Gunter

§ Orbital elements

Epoch: 2026-09-20T07:55:12.734400Z

Period
94.27 min
Inclination
42.9978°
Eccentricity
0.0001240
Mean motion
15.27583031 rev/d
Perigee alt
482.2 km
Apogee alt
483.9 km
Semi-major
6,861.2 km
B*
3.3281e-4
RAAN
251.5063°
Arg perigee
272.8094°
Mean anomaly
87.2615°
Rev number
8,170

§ Raw data

STARLINK-329511 63562U 25075Q   26263.33000850  .00008908  00000+0  33281-3 0  99932 63562  42.9978 251.5063 0001240 272.8094  87.2615 15.27583031 81704

JSON: /api/v1/satellites/63562 · /tle

For live sub-satellite position, see the globe view (requires WebGL).

§ Visibility from observer

Set your observer location to see the next 7 days of passes ≥ 10°. The values pass through the URL so the page stays shareable.

No JS? Fill the form by hand. The geolocation button needs JavaScript.